Location: ČR
(50.0000°N, 15.0000°E)
Time: 23:57:08
(UTC+01:00)

BlueWalker 3 - Pass Details

Date: 27 January 2026
Orbit: 450 x 461 km, 53.2° (Epoch: 14 February)

Event Time Altitude Azimuth Distance (km) Brightness Sun altitude
Rises 19:40:28 0° 279° (W) 2,457 6.7 -27.9°
Reaches altitude 10° 19:42:39 10° 285° (WNW) 1,584 5.4 -28.3°
Enters shadow 19:44:05 22° 295° (WNW) 1,047 4.2 -28.5°
